Location: New Town
(33.2710°N, 90.7534°W)
Time: 13:20:57
(UTC+00:00)

Explorer 11/Cluster Stage 4 - Pass Details

Date: 16 May 2021
Orbit: 467 x 1257 km, 28.8° (Epoch: 14 June)

Event Time Altitude Azimuth Distance (km) Brightness Sun altitude
Rises 03:09:53 0° 263° (W) 4,113 10.8 -23.8°
Reaches altitude 10° 03:12:45 10° 260° (W) 3,193 10.1 -24.2°
Maximum altitude 03:20:51 65° 181° (S) 1,359 7.4 -25.4°
Enters shadow 03:22:56 50° 126° (SE) 1,542 7.6 -25.7°
Drops below altitude 10° 03:28:43 10° 102° (ESE) 3,098 - -26.4°
Sets 03:31:27 0° 99° (E) 3,984 - -26.8°
